Regional Weather Roundup
Issued by NWS

Home | Current Version | Previous Version | Text Only | Print | Product List | Glossary On
Versions: 1 2 3 4 5 6 7 8 9 10 11 12 13 14 15 16 17 18 19 20 21 22 23 24 25 26 27 28 29 30 31 32 33 34 35 36 37 38 39 40 41 42 43 44 45 46 47 48 49 50
000
ASUS43 KMPX 240210
RWRMN
WEATHER ROUNDUP FOR MINNESOTA
NATIONAL WEATHER SERVICE TWIN CITIES/CHANHASSEN MN
900 PM CDT TUE SEP 23 2014


NOTE: "FAIR" INDICATES FEW OR NO CLOUDS BELOW 12,000 FEET WITH NO
SIGNIFICANT WEATHER AND/OR OBSTRUCTIONS TO VISIBILITY. N/A MEANS
CURRENT SKY AND/OR WEATHER CONDITIONS ARE NOT AVAILABLE.

MNZ060>063-068>070-240300-
   Twin Cities Metro

CITY           SKY/WX    TMP DP  RH WIND       PRES   REMARKS
TWIN CITIES    MOCLDY    66  51  58 SE10      30.15R
ST PAUL        MOCLDY    63  53  70 SE7       30.16R
CRYSTAL        CLOUDY    69  50  50 S13       30.13R
BLAINE         MOCLDY    66  54  63 SE6       30.15R
LAKEVILLE      MOCLDY    63  52  67 SE3       30.16R
EDEN PRAIRIE   CLOUDY    67  52  58 SE13      30.14R
SOUTH ST PAUL  MOCLDY    66  51  59 SE6       30.16R
LAKE ELMO      FAIR      63  52  67 S5        30.18R
$$
MNZ001>005-007-008-013>017-022>024-027-028-240300-
   Northwest Minnesota

CITY           SKY/WX    TMP DP  RH WIND       PRES   REMARKS
BEMIDJI        PTCLDY    56  51  82 SE3       30.09S
HALLOCK        MOCLDY    66  52  59 S16       29.99R
ROSEAU         PTCLDY    63  54  72 S9        30.03R
WARROAD        PTCLDY    63  55  77 S6        30.05R
THIEF RVR FALL MOCLDY    63  48  59 S9        30.05S
CROOKSTON      CLOUDY    63  52  67 S9        30.04S
FOSSTON        MOCLDY    55  50  82 CALM      30.07S
DETROIT LAKES  CLOUDY    61  54  77 S13       30.07S
MOORHEAD       CLOUDY    63  55  77 S12G18    30.05R
PARK RAPIDS    CLOUDY    63  52  67 SE9       30.08S
MAHNOMEN       FAIR      56  52  86 E5        30.05F
$$
MNZ006-009>011-018-025>026-240300-
   North Central Minnesota

CITY           SKY/WX    TMP DP  RH WIND       PRES   REMARKS
BAUDETTE       MOCLDY    61  51  70 VRB3      30.05S
FLAG ISLAND    CLEAR     63  55  77 S12       30.02R
INTL FALLS     PTCLDY    59  51  75 S3        30.09S
WASKISH        PTCLDY    59  54  82 CALM      30.09R
BIG FORK       PTCLDY    59  52  77 SE5       30.12S
LONGVILLE      PTCLDY    57  54  88 CALM      30.11S
GRAND RAPIDS   PTCLDY    57  50  77 SE5       30.14R
CRANE LAKE     PTCLDY    52  48  87 CALM      30.14S
ORR            PTCLDY    57  48  72 SE5       30.11S
COOK           PTCLDY    57  52  82 CALM      30.15R
WALKER         FAIR      61  52  72 SE5       30.09S
$$
MNZ012-019>021-037-240300-
   Northeast Minnesota

CITY           SKY/WX    TMP DP  RH WIND       PRES   REMARKS
DULUTH         PTCLDY    60  50  69 SE7       30.17R
ELY            CLEAR     57  50  77 S5        30.16S
HIBBING        PTCLDY    56  49  77 SE6       30.14S
EVELETH        PTCLDY    57  50  77 CALM      30.17R
DULUTH HARBOR  PTCLDY    57  55  94 N5        30.17R
TWO HARBORS    PTCLDY    52  46  82 N3        30.16S
SILVER BAY     PTCLDY    50  50 100 CALM      30.17R
GRAND MARAIS     N/A     51  49  92 N3        30.20R
G MARAIS ARPRT CLEAR     52  46  82 CALM      30.21S
$$
MNZ029>031-032-039>041-046>048-054>057-064-240300-
   West Central Minnesota

CITY           SKY/WX    TMP DP  RH WIND       PRES   REMARKS
FERGUS FALLS   CLOUDY    61  52  72 S22G30    30.07S
WHEATON        DRIZZLE   55  54  94 SE13      30.06S
MORRIS         DRIZZLE   57  57 100 SE14      30.06F
ALEXANDRIA     CLOUDY    58  54  86 SE10      30.12S
ELBOW LAKE     CLOUDY    56  55  93 SE13      30.07F
WADENA         CLOUDY    61  52  72 S12G18    30.10R
GLENWOOD       LGT RAIN  57  55  94 SE9       30.11F
APPLETON       CLOUDY    59  55  88 SE8       30.06F
BENSON         DRIZZLE   59  57  94 SE9       30.08F
ORTONVILLE     LGT RAIN  57  55  94 SE9       30.05S
MADISON        DRIZZLE   61  57  88 SE9       30.06S
WILLMAR        CLOUDY    61  55  82 SE9       30.12S
$$
MNZ033>034-036-042>043-049>051-058-059-240300-
   Central Minnesota

CITY           SKY/WX    TMP DP  RH WIND       PRES   REMARKS
ST CLOUD       CLOUDY    68  52  56 S13       30.12R
SAUK CENTRE    CLOUDY    58  55  88 S3        30.12F
PAYNESVILLE    CLOUDY    60  50  69 SE8       30.13R
AITKIN         PTCLDY    57  52  82 CALM      30.12S
PINE RIVER     MOCLDY    61  54  77 SE5       30.14S
BRAINERD       CLOUDY    61  52  72 SE7       30.12S
STAPLES        CLOUDY    63  52  67 S10       30.11R
LONG PRAIRIE   DRIZZLE   57  54  88 S8        30.14R
LITTLE FALLS   CLOUDY    63  52  67 S8        30.13R
LITCHFIELD     CLOUDY    63  55  77 SE6       30.14S
BUFFALO        CLOUDY    66  51  57 SE5       30.15R
MAPLE LAKE     CLOUDY    66  55  66 S5        30.14R
$$
MNZ037-044-045-052-053-240300-
   East Central Minnesota

CITY           SKY/WX    TMP DP  RH WIND       PRES   REMARKS
PRINCETON      MOCLDY    64  54  68 SE5       30.14R
MORA           PTCLDY    57  50  77 SE3       30.16S
CAMBRIDGE      PTCLDY    64  52  63 SE5       30.13S
RUSH CITY      PTCLDY    60  52  74 SE3       30.15S
MOOSE LAKE     PTCLDY    54  52  94 CALM      30.14S
HINCKLEY       FAIR      61  52  72 E3        30.16R
CLOQUET        CLEAR     61  50  67 CALM      30.17R
MCGREGOR       PTCLDY    59  52  77 SE6       30.15S
$$
MNZ071>073-080-081-089-090-097-098-240300-
   Southwest Minnesota

CITY           SKY/WX    TMP DP  RH WIND       PRES   REMARKS
MONTEVIDEO     CLOUDY    59  57  94 S8        30.08S
GRANITE FALLS  CLOUDY    60  53  79 SE8       30.10R
CANBY          CLOUDY    58  56  94 SE5       30.06S
MARSHALL       CLOUDY    61  52  72 SE14      30.06S
REDWOOD FALLS  CLOUDY    60  56  86 SE13      30.10R
OLIVIA         CLOUDY    63  52  67 SE12G18   30.11R
PIPESTONE      CLOUDY    59  55  88 S13       30.06S
WINDOM         RAIN      59  54  82 SE13G18   30.12R
WORTHINGTON    CLOUDY    57  55  94 SE12G20   30.11R
JACKSON        CLOUDY    59  54  82 SE6       30.14F
TRACY          CLOUDY    60  55  82 S13G20    30.09S
SLAYTON        CLOUDY    57  55  94 SE13      30.10R
$$
MNZ065>067-074>077-082>085-091>093-240300-
   South Central Minnesota

CITY           SKY/WX    TMP DP  RH WIND       PRES   REMARKS
MANKATO        CLOUDY    61  48  63 S7        30.15R
NEW ULM        CLOUDY    59  55  88 SE7       30.13R
ST JAMES       CLOUDY    63  54  72 SE7       30.15R
FAIRMONT       CLOUDY    61  50  67 S6        30.14R
GLENCOE        CLOUDY    64  52  65 S7        30.15R
FARIBAULT      CLOUDY    66  48  52 SE7       30.16S
OWATONNA       CLOUDY    64  48  55 SE8       30.17R
WASECA         CLOUDY    61  46  59 SE5       30.17S
ALBERT LEA     CLOUDY    63  52  67 SE8       30.16S
$$
MNZ078>079-086>088-094>096-240300-
   Southeast Minnesota

CITY           SKY/WX    TMP DP  RH WIND       PRES   REMARKS
ROCHESTER      CLOUDY    60  51  72 S8        30.20S
RED WING       MOCLDY    64  52  63 SE5       30.17R
STANTON        CLOUDY    65  49  56 SE7       30.15S
DODGE CENTER   CLOUDY    61  52  72 SE7       30.18S
WINONA         MOCLDY    57  52  82 SE5       30.21S
AUSTIN         CLOUDY    63  48  59 S7        30.17S
PRESTON        CLOUDY    60  54  79 SE5       30.21S
$$
ABBREVIATIONS USED IN REMARKS
   TC - TEMPERATURES IN CELSIUS
  WCI - WIND CHILL INDEX
   HX - HEAT INDEX
  VSB - VISIBILITY
$$



USA.gov is the U.S. government's official web portal to all federal, state and local government web resources and services.